This is the latest recevied weather packets stored in our database for station/object K4AVM-13. If no packets are shown the sender has not sent any weather packets the latest 10 day(s).
| Time | Temp. | Humidity | Pressure | Rain* | Wind** | Luminosity | Snow |
|---|---|---|---|---|---|---|---|
| 1777399218 | 18.33° C | 59% | 1020.8 hPa | 0 mm | - | 695 W/m² | - |
| 1777398916 | 18.89° C | 57% | 1020.8 hPa | 0 mm | - | 704 W/m² | - |
| 1777398612 | 18.89° C | 57% | 1020.9 hPa | 0 mm | - | 467 W/m² | - |
| 1777398309 | 18.89° C | 58% | 1021 hPa | 0 mm | - | 651 W/m² | - |
| 1777398007 | 18.33° C | 58% | 1021.2 hPa | 0 mm | - | 716 W/m² | - |
| 1777397703 | 18.89° C | 58% | 1021.3 hPa | 0 mm | - | 670 W/m² | - |
| 1777397398 | 17.78° C | 57% | 1021 hPa | 0 mm | - | 637 W/m² | - |
| 1777397095 | 17.78° C | 57% | 1021.1 hPa | 0 mm | - | 685 W/m² | - |
| 1777396791 | 17.78° C | 62% | 1021 hPa | 0 mm | - | 501 W/m² | - |
| 1777396489 | 17.78° C | 59% | 1021.5 hPa | 0 mm | - | 471 W/m² | - |
| 1777396185 | 17.22° C | 60% | 1021.4 hPa | 0 mm | - | 661 W/m² | - |
| 1777395881 | 17.22° C | 62% | 1021.3 hPa | 0 mm | - | 696 W/m² | - |
| 1777395577 | 16.67° C | 61% | 1021.8 hPa | 0 mm | - | 643 W/m² | - |
| 1777395273 | 16.67° C | 60% | 1021.9 hPa | 0 mm | - | 584 W/m² | - |
| 1777394971 | 16.67° C | 66% | 1022 hPa | 0 mm | - | 647 W/m² | - |
| 1777394667 | 16.11° C | 65% | 1022.2 hPa | 0 mm | - | 554 W/m² | - |
| 1777394363 | 15.56° C | 65% | 1022 hPa | 0 mm | - | 502 W/m² | - |
| 1777394060 | 15° C | 69% | 1021.9 hPa | 0 mm | - | 473 W/m² | - |
| 1777393755 | 13.89° C | 71% | 1021.2 hPa | 0 mm | - | 410 W/m² | - |
| 1777393455 | 13.89° C | 70% | 1022.2 hPa | 0 mm | - | 219 W/m² | - |
| 1777393151 | 13.33° C | 70% | 1022.5 hPa | 0 mm | - | 145 W/m² | - |
| 1777392848 | 13.33° C | 71% | 1023 hPa | 0 mm | - | 112 W/m² | - |
| 1777392543 | 13.33° C | 71% | 1023.4 hPa | 0 mm | - | 92 W/m² | - |
| 1777392239 | 13.33° C | 71% | 1023.3 hPa | 0 mm | - | 110 W/m² | - |
| 1777391934 | 13.33° C | 70% | 1023.5 hPa | 0 mm | - | 97 W/m² | - |
* Rain latest hour (hover to see other rain measurements)
** Current wind speed in m/s (hover to see current wind gust speed)